Regional Weather Roundup
Issued by NWS

Home | Current Version | Previous Version | Graphics & Text | Print | Product List | Glossary On
Versions: 1 2 3 4 5 6 7 8 9 10 11 12 13 14 15 16 17 18 19 20 21 22 23 24 25 26 27 28 29 30 31 32 33 34 35 36 37 38 39 40 41 42 43 44 45 46 47 48 49 50
000
ASUS45 KABQ 182301
RWRNM
NEW MEXICO REGIONAL WEATHER ROUNDUP
NATIONAL WEATHER SERVICE ALBUQUERQUE NM
500 PM MDT WED OCT 18 2017

NOTE: "FAIR" MEANS FEW OR NO CLOUDS BELOW 12,000 FEET AGL WITH NO
       SIGNIFICANT WEATHER OR OBSTRUCTIONS TO VISION.

      THIS PRODUCT IS RELEASED AS TWO VERSIONS.  ONE VERSION NEAR
      THE TOP OF THE HOUR CONTAINING PRELIMINARY DATA FROM ALBUQUERQUE
      AND OTHER STATIONS.  A FINAL VERSION WITH ADDITIONAL DATA IS
      ISSUED ABOUT 10 MINUTES AFTER THE HOUR.

NMZ501-503-504-510>518-190000-
NORTHWEST PLATEAU/NORTHCENTRAL MOUNTAINS

CITY           SKY/WX    TMP DP  RH WIND       PRES   REMARKS
FARMINGTON     FAIR      75  21  13 VRB6      30.15F
LOS ALAMOS       N/A     66  16  15 CALM      30.26F HAZE
SANTA FE       FAIR      72  19  13 N7        30.19F
TAOS           FAIR      67  15  13 N5        30.27S
ANGEL FIRE     FAIR      63  18  18 W7        30.31S

$$
NMZ402-403-502-505>509-190000-
WESTCENTRAL MOUNTAINS/SOUTHWEST MOUNTAINS

CITY           SKY/WX    TMP DP  RH WIND       PRES   REMARKS
GALLUP         FAIR      76  20  12 VRB5      30.20F
GRANTS         FAIR      73  20  13 CALM      30.22F
SILVER CITY    RAIN      72  44  35 S9G30     30.14F

$$
NMZ407-409-411-412-190000-
SOUTHERN DESERTS

CITY           SKY/WX    TMP DP  RH WIND       PRES   REMARKS
DEMING         FAIR      81  44  27 VRB3      30.08S
LAS CRUCES     PTSUNNY   78  45  31 E3        30.10S
HOLLOMAN AFB   FAIR      82  39  21 S3        30.08F
ALAMOGORDO     FAIR      81  37  21 CALM      30.08F
T OR C         FAIR      81  40  23 SW6       30.09F

$$
NMZ519>523-190000-
CENTRAL VALLEYS/CENTRAL HIGHLANDS

CITY           SKY/WX    TMP DP  RH WIND       PRES   REMARKS
ALBUQUERQUE    PTSUNNY   75  18  11 W3        30.15S
DOUBLE EAGLE   PTSUNNY   73  23  15 VRB6      30.18F
MORIARTY ARPT  FAIR      75  19  12 N8        30.20S
CLINES CORNERS FAIR      69  17  13 N14       30.24R
BELEN          FAIR      76  21  12 NE7       30.14F
SOCORRO        FAIR      80  24  13 N3        30.11S

$$
NMZ524>526-539-540-190000-
SOUTHCENTRAL MOUNTAINS

CITY           SKY/WX    TMP DP  RH WIND       PRES   REMARKS
RUIDOSO        FAIR      70  32  24 W10G16    30.25S

$$
NMZ527>531-190000-
NORTHEAST HIGHLANDS/NORTHEAST PLAINS

CITY           SKY/WX    TMP DP  RH WIND       PRES   REMARKS
LAS VEGAS      FAIR      72  22  15 E6        30.20S
RATON          FAIR      75  16  10 E7        30.15F
CLAYTON        FAIR      78  25  14 E8        30.10R

$$
NMZ532>537-190000-
EASTCENTRAL PLAINS

CITY           SKY/WX    TMP DP  RH WIND       PRES   REMARKS
SANTA ROSA     FAIR      80  26  13 CALM      30.05F
CANNON AFB     SUNNY     80  30  16 SW7       30.06S
CLOVIS AIRPORT FAIR      76  39  26 NW5       30.05S

$$
NMZ028-029-538-190000-
SOUTHEAST PLAINS

CITY           SKY/WX    TMP DP  RH WIND       PRES   REMARKS
ROSWELL        FAIR      85  39  19 S9        30.02F
ARTESIA        FAIR      82  50  32 SE15      30.02S
CARLSBAD       FAIR      85  51  31 SE8       30.00F
HOBBS          SUNNY     81  46  30 S12G18    30.04S


$$




USA.gov is the U.S. government's official web portal to all federal, state and local government web resources and services.